When you browse on this site, cookies collect data to enhance your experience and personalize the content and advertising you see.
Visit our Privacy Policy to learn more. By continuing to use the site, you agree to this use of cookies and data.
  • Em Portugal
  • Lista de países
  • Para 7 dias
  • Temperatura da água
  • Mapa do tempo
  • Widgets de tempo
  • user-avatar
    Iniciar Sessão

    Previsão horária em Uy-Salgan

    Hoje, 2 Junho, Terça-feira

    Tempo Temperatura Precipitação Vento Pressão Humidade
    00:00 +19°C° 0 mm 2 m/s 749 mmHg 70%
    01:00 +18°C° 0 mm 2 m/s 749 mmHg 74%
    02:00 +18°C° 0 mm 1 m/s 748 mmHg 78%
    03:00 +16°C° 0 mm 0 m/s 748 mmHg 82%
    04:00 +18°C° 0 mm 1 m/s 748 mmHg 79%
    05:00 +19°C° 0 mm 1 m/s 748 mmHg 76%
    06:00 +20°C° 0 mm 1 m/s 748 mmHg 72%
    07:00 +21°C° 0 mm 2 m/s 747 mmHg 66%
    08:00 +23°C° 0 mm 2 m/s 747 mmHg 59%
    09:00 +25°C° 0 mm 2 m/s 747 mmHg 52%
    10:00 +26°C° 0 mm 2 m/s 747 mmHg 48%
    11:00 +28°C° 0 mm 2 m/s 747 mmHg 43%
    12:00 +29°C° 0 mm 2 m/s 746 mmHg 39%
    13:00 +29°C° 0 mm 2 m/s 746 mmHg 38%
    14:00 +30°C° 0 mm 1 m/s 746 mmHg 36%
    15:00 +31°C° 0 mm 1 m/s 745 mmHg 34%
    16:00 +30°C° 0 mm 2 m/s 745 mmHg 38%
    17:00 +30°C° 0 mm 2 m/s 745 mmHg 42%
    18:00 +29°C° 0 mm 3 m/s 745 mmHg 46%
    19:00 +27°C° 0 mm 3 m/s 745 mmHg 51%
    20:00 +26°C° 0 mm 2 m/s 745 mmHg 56%
    21:00 +24°C° 0 mm 2 m/s 745 mmHg 61%
    22:00 +23°C° 0 mm 2 m/s 745 mmHg 64%
    23:00 +23°C° 0 mm 2 m/s 745 mmHg 66%

    Amanhã, 3 Junho, Quarta-feira

    Tempo Temperatura Precipitação Vento Pressão Humidade
    00:00 +21°C° 0 mm 2 m/s 744 mmHg 68%
    01:00 +21°C° 0 mm 2 m/s 744 mmHg 70%
    02:00 +20°C° 0 mm 3 m/s 744 mmHg 71%
    03:00 +20°C° 0 mm 4 m/s 744 mmHg 73%
    04:00 +20°C° 0 mm 4 m/s 744 mmHg 72%
    05:00 +20°C° 0 mm 4 m/s 744 mmHg 72%
    06:00 +20°C° 0 mm 5 m/s 744 mmHg 71%
    07:00 +22°C° 0 mm 5 m/s 745 mmHg 67%
    08:00 +23°C° 0 mm 6 m/s 745 mmHg 63%
    09:00 +26°C° 0 mm 6 m/s 746 mmHg 59%
    10:00 +27°C° 0 mm 6 m/s 746 mmHg 55%
    11:00 +28°C° 0 mm 6 m/s 746 mmHg 51%
    12:00 +30°C° 0 mm 6 m/s 746 mmHg 48%
    13:00 +29°C° 0 mm 5 m/s 746 mmHg 48%
    14:00 +29°C° 0 mm 5 m/s 746 mmHg 48%
    15:00 +29°C° 0 mm 5 m/s 746 mmHg 48%
    16:00 +29°C° 0 mm 4 m/s 746 mmHg 50%
    17:00 +28°C° 0 mm 3 m/s 746 mmHg 52%
    18:00 +27°C° 0 mm 3 m/s 746 mmHg 54%
    19:00 +26°C° 0.3 mm 3 m/s 747 mmHg 58%
    20:00 +25°C° 0.3 mm 3 m/s 747 mmHg 63%
    21:00 +22°C° 0.3 mm 3 m/s 748 mmHg 67%
    22:00 +21°C° 0.4 mm 3 m/s 748 mmHg 72%
    23:00 +21°C° 0.4 mm 3 m/s 748 mmHg 77%

    Depois de amanhã, 4 Junho, Quinta-feira

    Tempo Temperatura Precipitação Vento Pressão Humidade
    00:00 +20°C° 0.4 mm 4 m/s 749 mmHg 82%
    01:00 +20°C° 0.2 mm 4 m/s 749 mmHg 84%
    02:00 +19°C° 0.2 mm 4 m/s 749 mmHg 85%
    03:00 +18°C° 0.2 mm 4 m/s 750 mmHg 87%
    04:00 +19°C° 0 mm 4 m/s 750 mmHg 84%
    05:00 +19°C° 0 mm 4 m/s 751 mmHg 80%
    06:00 +19°C° 0 mm 4 m/s 751 mmHg 77%
    07:00 +21°C° 0 mm 3 m/s 751 mmHg 71%
    08:00 +22°C° 0 mm 3 m/s 751 mmHg 64%
    09:00 +25°C° 0 mm 3 m/s 751 mmHg 58%
    10:00 +26°C° 0 mm 2 m/s 751 mmHg 55%
    11:00 +27°C° 0 mm 2 m/s 751 mmHg 52%
    12:00 +27°C° 0 mm 1 m/s 751 mmHg 49%
    13:00 +28°C° 0 mm 1 m/s 750 mmHg 47%
    14:00 +29°C° 0 mm 1 m/s 750 mmHg 45%
    15:00 +29°C° 0 mm 1 m/s 750 mmHg 43%
    16:00 +29°C° 0 mm 1 m/s 750 mmHg 43%
    17:00 +29°C° 0 mm 2 m/s 750 mmHg 44%
    18:00 +29°C° 0 mm 2 m/s 750 mmHg 44%
    19:00 +28°C° 0 mm 2 m/s 750 mmHg 47%
    20:00 +27°C° 0 mm 3 m/s 750 mmHg 50%
    21:00 +25°C° 0 mm 3 m/s 751 mmHg 53%
    22:00 +24°C° 0 mm 3 m/s 751 mmHg 56%
    23:00 +23°C° 0 mm 2 m/s 751 mmHg 59%

    5 Junho, Sexta-feira

    Tempo Temperatura Precipitação Vento Pressão Humidade
    00:00 +21°C° 0 mm 2 m/s 751 mmHg 62%
    01:00 +21°C° 0.2 mm 3 m/s 751 mmHg 68%
    02:00 +20°C° 0.2 mm 4 m/s 751 mmHg 73%
    03:00 +19°C° 0.2 mm 6 m/s 752 mmHg 78%
    04:00 +19°C° 0.3 mm 6 m/s 753 mmHg 79%
    05:00 +19°C° 0.3 mm 6 m/s 753 mmHg 79%
    06:00 +18°C° 0.3 mm 7 m/s 754 mmHg 80%
    07:00 +19°C° 0.2 mm 5 m/s 754 mmHg 82%
    08:00 +18°C° 0.2 mm 4 m/s 755 mmHg 84%
    09:00 +18°C° 0.2 mm 3 m/s 755 mmHg 86%
    10:00 +19°C° 0.2 mm 3 m/s 756 mmHg 82%
    11:00 +20°C° 0.2 mm 3 m/s 756 mmHg 78%
    12:00 +21°C° 0.2 mm 3 m/s 756 mmHg 75%
    13:00 +22°C° 0 mm 3 m/s 756 mmHg 69%
    14:00 +24°C° 0 mm 3 m/s 756 mmHg 63%
    15:00 +25°C° 0 mm 3 m/s 756 mmHg 57%
    16:00 +25°C° 0 mm 2 m/s 756 mmHg 57%
    17:00 +25°C° 0 mm 2 m/s 756 mmHg 58%
    18:00 +25°C° 0 mm 2 m/s 756 mmHg 58%
    19:00 +24°C° 0 mm 2 m/s 756 mmHg 63%
    20:00 +21°C° 0 mm 2 m/s 756 mmHg 67%
    21:00 +20°C° 0 mm 2 m/s 757 mmHg 72%
    22:00 +19°C° 0 mm 2 m/s 757 mmHg 73%
    23:00 +19°C° 0 mm 2 m/s 756 mmHg 74%

    6 Junho, Sábado

    Tempo Temperatura Precipitação Vento Pressão Humidade
    00:00 +19°C° 0 mm 2 m/s 756 mmHg 75%
    01:00 +19°C° 0 mm 1 m/s 756 mmHg 76%
    02:00 +18°C° 0 mm 1 m/s 756 mmHg 78%
    03:00 +18°C° 0 mm 1 m/s 756 mmHg 79%
    04:00 +19°C° 0 mm 1 m/s 756 mmHg 76%
    05:00 +20°C° 0 mm 1 m/s 756 mmHg 72%
    06:00 +21°C° 0 mm 1 m/s 756 mmHg 69%
    07:00 +22°C° 0 mm 1 m/s 756 mmHg 62%
    08:00 +24°C° 0 mm 2 m/s 756 mmHg 56%
    09:00 +25°C° 0 mm 2 m/s 756 mmHg 49%
    10:00 +27°C° 0 mm 2 m/s 756 mmHg 45%
    11:00 +28°C° 0 mm 2 m/s 756 mmHg 41%
    12:00 +29°C° 0 mm 3 m/s 755 mmHg 37%
    13:00 +30°C° 0 mm 2 m/s 755 mmHg 35%
    14:00 +30°C° 0 mm 2 m/s 755 mmHg 33%
    15:00 +31°C° 0 mm 2 m/s 755 mmHg 31%
    16:00 +31°C° 0 mm 1 m/s 755 mmHg 32%
    17:00 +30°C° 0 mm 1 m/s 755 mmHg 33%
    18:00 +30°C° 0 mm 1 m/s 755 mmHg 34%
    19:00 +28°C° 0 mm 2 m/s 755 mmHg 40%
    20:00 +26°C° 0 mm 2 m/s 755 mmHg 45%
    21:00 +24°C° 0 mm 3 m/s 755 mmHg 51%
    22:00 +22°C° 0 mm 3 m/s 755 mmHg 55%
    23:00 +22°C° 0 mm 3 m/s 755 mmHg 59%

    7 Junho, Domingo

    Tempo Temperatura Precipitação Vento Pressão Humidade
    00:00 +21°C° 0 mm 2 m/s 754 mmHg 63%
    01:00 +21°C° 0 mm 2 m/s 754 mmHg 63%
    02:00 +20°C° 0 mm 2 m/s 754 mmHg 62%
    03:00 +20°C° 0 mm 2 m/s 754 mmHg 62%
    04:00 +21°C° 0 mm 2 m/s 754 mmHg 61%
    05:00 +21°C° 0 mm 2 m/s 755 mmHg 60%
    06:00 +23°C° 0 mm 1 m/s 755 mmHg 59%
    07:00 +25°C° 0 mm 2 m/s 755 mmHg 51%
    08:00 +27°C° 0 mm 3 m/s 755 mmHg 43%
    09:00 +28°C° 0 mm 4 m/s 755 mmHg 35%
    10:00 +29°C° 0 mm 4 m/s 755 mmHg 34%
    11:00 +30°C° 0 mm 4 m/s 755 mmHg 32%
    12:00 +32°C° 0 mm 4 m/s 755 mmHg 30%
    13:00 +33°C° 0 mm 4 m/s 754 mmHg 29%
    14:00 +33°C° 0 mm 4 m/s 754 mmHg 29%
    15:00 +33°C° 0 mm 4 m/s 754 mmHg 28%
    16:00 +33°C° 0 mm 4 m/s 754 mmHg 31%
    17:00 +32°C° 0 mm 4 m/s 754 mmHg 34%
    18:00 +30°C° 0 mm 4 m/s 754 mmHg 37%
    19:00 +28°C° 0 mm 4 m/s 754 mmHg 39%
    20:00 +26°C° 0 mm 4 m/s 754 mmHg 42%
    21:00 +25°C° 0 mm 4 m/s 755 mmHg 44%
    22:00 +24°C° 0 mm 3 m/s 754 mmHg 46%
    23:00 +21°C° 0 mm 3 m/s 754 mmHg 47%
    Mostrar mais